[[{"header":{"parameterUnit":"m.s-1","parameterCategory":1,"la1":30.2991,"la2":30.254,"lo1":-89.0895,"lo2":-89.0444,"dy":0.0017,"dx":0.0017,"nx":28,"ny":28,"refTime":"2025-07-10T21:00:00:Z","depth":0,"parameterNumber":2,"parameterNumberName":"U-component_of_WINDS"},"data":[0,0,0,0,0,0,0,0,0,0,0,0,0,0,0,0,0,0,0,0,0,0,0,0,0,0,0,0,0,0,0,0,0,0,0,0,0,0,0,0,0,0,0,0,0,0,0,0,0,0,0,0,0,0,0,0,0,0,4.9018,4.902,0,4.9229,4.9231,4.9234,4.9229,4.9226,4.9223,4.9221,4.9435,4.9443,4.9452,0,0,0,0,0,0,0,0,0,0,0,0,0,4.8608,4.8616,4.9018,4.902,4.9023,4.9228,4.9231,4.9234,4.923,4.9226,4.9223,4.922,4.9432,4.9442,4.9452,0,0,0,0,0,0,0,0,0,0,0,0,0,4.8799,4.8618,4.9017,4.9046,4.905,4.9228,4.9231,4.9235,4.923,4.9226,4.9222,4.9218,4.9429,4.9441,4.9454,4.9617,0,0,4.9492,4.9497,0,0,0,0,0,0,0,0,4.8789,4.8814,4.9039,4.9044,4.9049,4.9198,4.9166,4.9363,4.9232,4.9162,4.9221,4.9216,4.936,4.9378,4.9427,4.9627,4.9636,4.9493,4.9501,4.9506,4.951,0,0,0,0,0,0,0,4.8775,4.8805,4.9101,4.9042,4.9049,4.9047,4.9069,4.9203,4.9282,4.9168,4.9168,4.9193,4.9362,4.9414,4.9432,4.9639,4.9493,4.9504,4.9512,4.9517,4.9982,4.9987,0,0,0,0,0,0,4.8757,4.8794,4.9095,4.9108,4.8906,4.9058,4.9083,4.9155,4.9281,4.9296,4.9196,4.9192,4.9395,4.9417,4.9439,4.9638,4.9506,4.9518,4.9525,4.9978,4.9983,4.9989,0,0,0,0,0,0,4.8748,4.8783,4.9086,4.8951,4.899,4.9069,4.915,4.9161,4.9214,4.9302,4.9316,4.9236,4.9393,4.9421,4.9572,4.9645,4.9523,4.9535,4.9972,4.9979,4.9986,5.0037,0,0,0,0,0,0,4.8736,4.878,4.8844,4.8953,4.8997,4.9217,4.9155,4.9168,4.9236,4.9232,4.9343,4.9357,4.9392,4.9554,4.9585,4.966,4.9545,4.9966,4.9975,4.9984,5.0029,5.0045,5.0059,0,0,0,0,0,4.8721,4.8849,4.8847,4.8883,4.9078,4.9221,4.9246,4.9283,4.9242,4.9306,4.9362,4.9354,4.9632,4.9569,4.9604,4.9685,4.9961,4.9972,4.9983,5.0022,5.0042,5.0058,0,0,0,0,0,0,4.8746,4.8864,4.8863,4.903,4.9116,4.922,4.9302,4.9303,4.9401,4.9394,4.9435,4.946,4.9611,4.9663,4.9591,4.9848,4.9791,4.981,4.9809,4.9828,4.9843,4.9827,4.9555,0,0,0,0,0,4.8771,4.8879,4.8975,4.9113,4.9157,4.9222,4.9286,4.9307,4.9397,4.9433,4.95,4.9588,4.9695,4.9764,4.9868,5.0036,5.006,5.0109,5.0123,5.0135,5.0151,5.0243,5.0266,5.0025,5.0024,5.0024,0,0,4.8824,4.8902,4.8967,4.912,4.9189,4.9299,4.9252,4.937,4.9451,4.945,4.9597,4.965,4.975,4.991,4.9984,4.9958,5.0222,5.0149,5.0158,5.0167,5.0256,5.0279,5.0299,5.0032,5.0031,5.0029,0,0,4.8976,4.9046,4.9169,4.9238,4.9343,4.9386,4.9415,4.952,4.9555,4.9703,4.9704,4.9801,4.9984,5.0055,5.0115,5.0293,5.0289,5.0326,5.0403,5.0493,5.0512,5.0529,5.0592,5.0614,5.0341,5.0341,5.0341,0,4.9029,4.9194,4.9231,4.935,4.9417,4.9421,4.9545,4.9611,4.9744,4.979,4.9758,4.9988,5.0056,5.0233,5.0276,5.0325,5.0359,5.0313,5.0506,5.0523,5.054,5.0601,5.0624,5.0345,5.0344,5.0344,5.0343,0,4.9253,4.9368,4.9454,4.9583,4.9659,4.978,4.9834,4.9907,4.9921,4.9967,5.0117,5.0198,5.0317,5.0361,5.0376,5.054,5.052,5.0497,5.0441,5.0566,5.0624,5.0647,5.035,5.0349,5.0348,5.0347,0,0,4.9428,4.9575,4.9606,4.9664,4.978,4.9869,4.9989,5.0106,5.0168,5.0259,5.036,5.0515,5.0494,5.0562,5.0585,5.0663,5.0799,5.0631,5.0634,5.0659,5.0984,5.1001,5.1027,5.0796,5.0801,5.0805,5.0976,0,4.9592,4.9807,4.9843,5.003,5.0136,5.0141,5.0246,5.0327,5.0372,5.0468,5.0518,5.0627,5.0591,5.0632,5.071,5.0766,5.0864,5.0754,5.0891,5.0895,5.0866,5.1058,5.1076,5.1234,5.0998,5.1002,5.1005,0,4.9813,4.991,5.0109,5.0209,5.0255,5.0348,5.0458,5.055,5.0642,5.0669,5.0745,5.0758,5.0882,5.0819,5.099,5.0914,5.0972,5.1007,5.1014,5.1029,5.0958,5.1077,5.1285,5.1309,5.1041,5.1038,5.1036,0,4.9921,5.0101,5.0243,5.0293,5.0413,5.0479,5.0532,5.062,5.0688,5.0783,5.0828,5.0936,5.0996,5.1079,5.1121,5.1072,5.1289,5.123,5.1315,5.1314,5.1361,5.1357,5.1581,5.1398,5.1397,5.1397,5.1396,0,5.0101,5.0222,5.0293,5.038,5.0515,5.0555,5.0688,5.0739,5.0817,5.0914,5.0924,5.1014,5.1064,5.1161,5.1194,5.133,5.1357,5.1382,5.139,5.1382,5.1379,5.142,5.1411,5.1403,5.1402,5.1401,5.1399,0,5.0245,5.0297,5.0452,5.0553,5.0582,5.0677,5.0763,5.0847,5.0892,5.1014,5.1044,5.1114,5.1229,5.1279,5.142,5.1442,5.1598,5.1597,5.1567,5.157,5.1652,5.1643,5.191,5.1947,5.1739,5.1741,5.1743,0,5.0357,5.045,5.0561,5.0627,5.0682,5.0788,5.0857,5.0899,5.097,5.1082,5.1153,5.1268,5.1362,5.1545,5.1608,5.1716,5.1718,5.1804,5.1734,5.1723,5.1719,5.1713,5.1723,5.1817,5.1819,5.1821,5.1822,0,5.0549,5.057,5.067,5.078,5.0862,5.095,5.1035,5.1088,5.1143,5.1223,5.1341,5.1414,5.1558,5.1672,5.1784,5.1838,5.1839,5.1843,5.1869,5.1862,5.184,5.1853,5.1602,5.1837,5.1836,5.1835,5.1834,5.1833,5.0681,5.0764,5.0855,5.0965,5.1034,5.1114,5.1198,5.1252,5.1352,5.1473,5.1491,5.1617,5.1705,5.1855,5.1913,5.2011,5.199,5.2027,5.2036,5.2045,5.205,5.1824,5.2032,5.2031,5.2031,5.2031,5.2031,0,5.0874,5.0933,5.1034,5.1154,5.1241,5.1234,5.1328,5.1401,5.1512,5.1594,5.1687,5.1822,5.1932,5.2003,5.2114,5.2179,5.2183,5.2207,5.2203,5.2215,5.2062,5.203,5.2202,5.2202,5.2202,5.2202,5.2202,5.2202,5.0985,5.1125,5.1156,5.133,5.1387,5.1511,5.1565,5.1638,5.1704,5.1854,5.1946,5.1992,5.2069,5.2186,5.2287,5.2305,5.2345,5.2371,5.2387,5.2244,5.2226,5.2209,5.2178,5.2379,5.2379,5.2532,5.2533,5.2534]},{"header":{"parameterUnit":"m.s-1","parameterCategory":1,"la1":30.2991,"la2":30.254,"lo1":-89.0895,"lo2":-89.0444,"dy":0.0017,"dx":0.0017,"nx":28,"ny":28,"refTime":"2025-07-10T21:00:00:Z","depth":0,"parameterNumber":3,"parameterNumberName":"V-component_of_WINDS"},"data":[0,0,0,0,0,0,0,0,0,0,0,0,0,0,0,0,0,0,0,0,0,0,0,0,0,0,0,0,0,0,0,0,0,0,0,0,0,0,0,0,0,0,0,0,0,0,0,0,0,0,0,0,0,0,0,0,0,0,-0.3944,-0.3943,0,-0.3795,-0.3793,-0.3791,-0.3751,-0.3752,-0.3753,-0.3754,-0.3588,-0.3583,-0.3578,0,0,0,0,0,0,0,0,0,0,0,0,0,-0.4183,-0.4179,-0.3945,-0.3943,-0.3941,-0.3795,-0.3793,-0.3791,-0.3751,-0.3752,-0.3753,-0.3754,-0.359,-0.3584,-0.3578,0,0,0,0,0,0,0,0,0,0,0,0,0,-0.4061,-0.4178,-0.3945,-0.3903,-0.3898,-0.3796,-0.3793,-0.379,-0.3751,-0.3752,-0.3753,-0.3755,-0.3592,-0.3585,-0.3577,-0.3501,0,0,-0.3553,-0.3549,0,0,0,0,0,0,0,0,-0.4068,-0.4052,-0.3911,-0.3906,-0.39,-0.3793,-0.3817,-0.3693,-0.375,-0.3806,-0.3754,-0.3755,-0.3655,-0.3642,-0.361,-0.3493,-0.3486,-0.3552,-0.3547,-0.3544,-0.3542,0,0,0,0,0,0,0,-0.4077,-0.4058,-0.3885,-0.3909,-0.3902,-0.3888,-0.3873,-0.3793,-0.3724,-0.3801,-0.3798,-0.3782,-0.3652,-0.3618,-0.3606,-0.3484,-0.3552,-0.3545,-0.354,-0.3537,-0.3294,-0.3293,0,0,0,0,0,0,-0.4094,-0.4066,-0.389,-0.388,-0.399,-0.3883,-0.3865,-0.3826,-0.3725,-0.3711,-0.3781,-0.378,-0.3631,-0.3615,-0.36,-0.3503,-0.3544,-0.3537,-0.3532,-0.3296,-0.3294,-0.3292,0,0,0,0,0,0,-0.4099,-0.4079,-0.3896,-0.3972,-0.3948,-0.3878,-0.3834,-0.3822,-0.3789,-0.371,-0.3696,-0.376,-0.3631,-0.3611,-0.3526,-0.3497,-0.3533,-0.3526,-0.3298,-0.3296,-0.3293,-0.331,0,0,0,0,0,0,-0.4106,-0.4081,-0.4054,-0.3972,-0.3944,-0.3828,-0.3832,-0.3818,-0.3777,-0.3775,-0.3686,-0.3673,-0.3631,-0.3538,-0.3519,-0.3487,-0.352,-0.33,-0.3297,-0.3294,-0.3312,-0.3309,-0.3306,0,0,0,0,0,-0.4115,-0.4062,-0.4053,-0.4032,-0.391,-0.3827,-0.381,-0.3766,-0.3775,-0.3745,-0.3694,-0.3675,-0.3504,-0.353,-0.3507,-0.3473,-0.3302,-0.3298,-0.3294,-0.3313,-0.3309,-0.3306,0,0,0,0,0,0,-0.4138,-0.4051,-0.4039,-0.396,-0.3902,-0.382,-0.3782,-0.3764,-0.3699,-0.3699,-0.3644,-0.3624,-0.3543,-0.3499,-0.353,-0.3393,-0.3402,-0.3394,-0.3425,-0.342,-0.3417,-0.3428,-0.3513,0,0,0,0,0,-0.4135,-0.4079,-0.4004,-0.394,-0.3912,-0.3852,-0.3814,-0.3786,-0.3722,-0.3695,-0.3638,-0.3573,-0.3504,-0.346,-0.3392,-0.3306,-0.3284,-0.3271,-0.3268,-0.3266,-0.3258,-0.3207,-0.32,-0.3279,-0.3279,-0.3279,0,0,-0.4126,-0.4071,-0.4038,-0.3944,-0.3895,-0.3834,-0.3831,-0.3767,-0.372,-0.3684,-0.3602,-0.3557,-0.348,-0.3395,-0.3354,-0.3356,-0.3232,-0.3261,-0.326,-0.3253,-0.3203,-0.3195,-0.3188,-0.3277,-0.3277,-0.3278,0,0,-0.4079,-0.4033,-0.3975,-0.3927,-0.3855,-0.3816,-0.3802,-0.3723,-0.3694,-0.3611,-0.3582,-0.3523,-0.3407,-0.3353,-0.3311,-0.3243,-0.3223,-0.3223,-0.3205,-0.3156,-0.315,-0.3144,-0.3118,-0.311,-0.3216,-0.3216,-0.3216,0,-0.4075,-0.3987,-0.3946,-0.3884,-0.3842,-0.3811,-0.3749,-0.3703,-0.3611,-0.3581,-0.3586,-0.3439,-0.3385,-0.3286,-0.327,-0.3237,-0.3216,-0.3232,-0.3155,-0.3149,-0.3143,-0.3117,-0.3108,-0.3216,-0.3216,-0.3216,-0.3216,0,-0.3985,-0.3924,-0.3885,-0.3801,-0.3755,-0.3693,-0.3639,-0.3596,-0.3572,-0.3531,-0.3445,-0.338,-0.3299,-0.3273,-0.3247,-0.3169,-0.3172,-0.3167,-0.3174,-0.3136,-0.3111,-0.3101,-0.3217,-0.3216,-0.3216,-0.3216,0,0,-0.3947,-0.3844,-0.383,-0.3791,-0.3709,-0.3659,-0.3594,-0.3518,-0.3482,-0.3419,-0.3361,-0.3264,-0.3259,-0.321,-0.3178,-0.3135,-0.3084,-0.3134,-0.3132,-0.3126,-0.2991,-0.2994,-0.2984,-0.3071,-0.3069,-0.3067,-0.2996,0,-0.3888,-0.3777,-0.3738,-0.3644,-0.3585,-0.3555,-0.3498,-0.344,-0.3399,-0.334,-0.3294,-0.3225,-0.3225,-0.3195,-0.3152,-0.31,-0.3055,-0.3104,-0.3012,-0.301,-0.3031,-0.2971,-0.2974,-0.2911,-0.2987,-0.2985,-0.2984,0,-0.3804,-0.3745,-0.3646,-0.3572,-0.3545,-0.3496,-0.3422,-0.3368,-0.33,-0.3273,-0.322,-0.3191,-0.3118,-0.3132,-0.303,-0.3064,-0.3024,-0.2992,-0.2988,-0.2976,-0.2993,-0.2955,-0.289,-0.288,-0.2968,-0.2969,-0.297,0,-0.3785,-0.3679,-0.3606,-0.3574,-0.3486,-0.3451,-0.3412,-0.3346,-0.3303,-0.3237,-0.3208,-0.3134,-0.3092,-0.3034,-0.2984,-0.2999,-0.2885,-0.2895,-0.2857,-0.2858,-0.2833,-0.2835,-0.2758,-0.2811,-0.2811,-0.2811,-0.2811,0,-0.3722,-0.3662,-0.3597,-0.3551,-0.3482,-0.3437,-0.3369,-0.3327,-0.3269,-0.3212,-0.318,-0.3126,-0.3065,-0.3003,-0.2963,-0.2882,-0.2864,-0.2838,-0.2827,-0.284,-0.2843,-0.2811,-0.2814,-0.2808,-0.2809,-0.2809,-0.281,0,-0.3688,-0.3642,-0.356,-0.3484,-0.3464,-0.3416,-0.3349,-0.3302,-0.3261,-0.3189,-0.317,-0.3104,-0.3028,-0.2974,-0.2876,-0.2849,-0.2762,-0.2753,-0.2786,-0.2781,-0.2746,-0.2749,-0.2644,-0.2627,-0.2693,-0.2693,-0.2692,0,-0.365,-0.3604,-0.3524,-0.3486,-0.3448,-0.3387,-0.3343,-0.3296,-0.3251,-0.317,-0.3132,-0.3056,-0.2992,-0.2872,-0.2813,-0.2737,-0.2724,-0.2693,-0.2712,-0.2726,-0.2721,-0.2724,-0.2718,-0.2689,-0.2689,-0.2689,-0.2688,0,-0.3588,-0.3568,-0.3508,-0.3441,-0.3391,-0.3334,-0.3276,-0.3246,-0.3188,-0.3138,-0.3064,-0.3014,-0.2916,-0.2839,-0.2758,-0.2712,-0.2689,-0.2683,-0.267,-0.2681,-0.2702,-0.2688,-0.2777,-0.2685,-0.2685,-0.2686,-0.2686,-0.2686,-0.3549,-0.3506,-0.3444,-0.3378,-0.3331,-0.3278,-0.323,-0.3185,-0.3123,-0.3041,-0.3016,-0.2938,-0.2868,-0.2757,-0.2712,-0.2647,-0.2647,-0.2629,-0.2624,-0.2619,-0.2619,-0.2714,-0.2632,-0.2632,-0.2632,-0.2632,-0.2632,0,-0.3483,-0.3442,-0.3383,-0.3305,-0.3253,-0.3241,-0.3176,-0.3132,-0.3065,-0.3004,-0.2943,-0.2856,-0.2781,-0.2717,-0.2638,-0.2598,-0.2586,-0.2579,-0.258,-0.257,-0.2624,-0.2642,-0.2591,-0.2591,-0.2591,-0.2591,-0.2591,-0.2591,-0.3443,-0.337,-0.3342,-0.3244,-0.3201,-0.3128,-0.3091,-0.3041,-0.2993,-0.2898,-0.2838,-0.2798,-0.2734,-0.2651,-0.2581,-0.2563,-0.2535,-0.2531,-0.251,-0.2561,-0.2566,-0.2571,-0.2588,-0.2525,-0.2525,-0.2461,-0.2461,-0.246]}]]